AirNav   Everest Fuels
 
 540 users online  

2FD4 Port Everglades Heliport
Fort Lauderdale, Florida, USA

GOING TO FORT LAUDERDALE?


FAA INFORMATION EFFECTIVE 02 JANUARY 2020

Location

FAA Identifier: 2FD4
Lat/Long: 26-05-46.3130N 080-06-49.1590W
26-05.771883N 080-06.819317W
26.0961981,-80.1136553
(estimated)
Elevation: 25 ft. / 8 m (estimated)
Variation: 03W (1985)
From city: 4 miles SE of FORT LAUDERDALE, FL
Time zone: UTC -5 (UTC -4 during Daylight Saving Time)
Zip code: 33316

Heliport Operations

Heliport use: Private use. Permission required prior to landing
Activation date: 09/1987
Control tower: no
ARTCC: MIAMI CENTER
FSS: MIAMI FLIGHT SERVICE STATION
Attendance: UNATNDD
Segmented circle: no

Heliport Communications

WX ASOS at FLL (2.4 nm SW): PHONE 954-359-7857
WX ASOS at FXE (7 nm NW): PHONE 954-772-2537
WX ASOS at HWO (9 nm SW): PHONE 954-983-5904
WX ASOS at PMP (9 nm N): PHONE 954-783-3720
WX ASOS at OPF (14 nm SW): 125.9 (305-681-4063)
WX AWOS-3 at BCT (17 nm N): 121.125 (561-391-2696)

Nearby radio navigation aids

VOR radial/distance  VOR name  Freq  Var
FLLr071/3.1FORT LAUDERDALE VOR/DME114.4006W
VKZr010/20.8VIRGINIA KEY VOR/DME117.1004W
DHPr040/21.8DOLPHIN VORTAC113.9004W
PBIr185/35.1PALM BEACH VORTAC115.7003W

Heliport Services

Runway Information

Helipad H1

Dimensions: 30 x 30 ft. / 9 x 9 m
Surface: concrete
ROOFTOP.
Traffic pattern: leftleft

Heliport Ownership and Management from official FAA records

Ownership: Privately-owned
Owner: REGER RAIA, JASMINE
2200 SE 21 ST
FT LAUDERDALE, FL 33316
Phone 805-981-2527
EXTENSION 100 OR 128.
Manager: REGER RAIA JASMINE
2200 SE 21 ST
FT LAUDERDALE, FL 33316
Phone 954-523-4600
ADDITIONAL PHONE: 561-212-2762

Additional Remarks

A52-H1 305' BLDG 2400' E & 270' BLDG 2400' N OF PAD.
FOR CD CTC MIAMI APCH AT 305-869-5432.

Instrument Procedures

There are no published instrument procedures at 2FD4.

Some nearby airports with instrument procedures:

KFLL - Fort Lauderdale/Hollywood International Airport (2 nm SW)
KFXE - Fort Lauderdale Executive Airport (7 nm NW)
KHWO - North Perry Airport (9 nm SW)
KPMP - Pompano Beach Airpark (9 nm N)
KOPF - Miami-Opa Locka Executive Airport (14 nm SW)
KBCT - Boca Raton Airport (17 nm N)
 
Loc | Ops | Rwys | IFR | FBO | Links
Com | Nav | Svcs | Stats | Notes

Reliance Aviation
AirBoss

 
Area around 2FD4 (Port Everglades Heliport)
 
Road maps at: MapQuest Bing Google
 
Aerial photo
No photo
 
Sectional chart

 
Airport distance calculator
Flying to Port Everglades Heliport? Find the distance to fly.

From to 2FD4

Sunrise and sunset
Times for 18-Jan-2020
 Local
(UTC-5)
 Zulu
(UTC)
Morning civil twilight06:4511:45
Sunrise07:1012:10
Sunset17:5222:52
Evening civil twilight18:1623:16

Current date and time
Zulu (UTC)  18-Jan-2020 10:27:19
Local (UTC-5)  18-Jan-2020 05:27:19
 
METAR
KFLL 
3nm SW 
180953Z 09022G25KT 10SM FEW033 BKN045 22/14 A3026 RMK AO2 PK WND 10027/0940 SLP245 T02170139 $
KFXE 
7nm NW 
180953Z 08017G23KT 10SM SCT043 21/12 A3027 RMK AO2 PK WND 09026/0928 SLP251 T02110122
KHWO 
9nm SW 
180953Z AUTO 09015G22KT 10SM OVC044 22/14 A3028 RMK AO2 PK WND 08030/0935 SLP252 T02220139 $
KPMP 
9nm N 
180953Z AUTO 09018G25KT 7SM OVC044 22/12 A3027 RMK AO2 PK WND 09029/0914 SLP252 T02220122
KOPF 
14nm SW 
180953Z AUTO 09019G22KT 10SM FEW036 OVC044 22/14 A3027 RMK AO2 SLP249 T02170144
KBCT 
17nm N 
180353Z 09020G30KT 10SM SCT041 23/14 A3034
TAF
KFLL 
3nm SW 
180526Z 1806/1912 08015G25KT P6SM SCT045 FM180900 09018KT P6SM FEW035 SCT090 FM181900 12017KT P6SM FEW025 SCT050 FM190200 13007KT P6SM FEW025 SCT050
KFXE 
7nm NW 
180526Z 1806/1906 07015G25KT P6SM BKN040 FM180800 09015KT P6SM FEW035 SCT070 FM181800 11017KT P6SM FEW025 SCT090 FM190200 12007KT P6SM FEW025 SCT050
KOPF 
14nm SW 
180526Z 1806/1906 07015G25KT P6SM BKN035 OVC045 FM180900 09015KT P6SM FEW035 SCT090 FM181100 09017KT P6SM FEW050 SCT150 FM182100 11013KT P6SM FEW025 SCT045 FM190100 12007KT P6SM FEW025 SCT050
NOTAMs
Click for the latest NOTAMs
NOTAMs are issued by the DoD/FAA and will open in a separate window not controlled by AirNav.

 

 
 

Would you like to see your business listed on this page?

 If your business provides an interesting product or service to pilots, flight crews, aircraft, or users of the Port Everglades Heliport, you should consider listing it here.  To start the listing process, click on the button below
 
Add a business
 

Other Pages about Port Everglades Heliport

Update a link
 
Copyright © AirNav, LLC. All rights reserved. Privacy Policy  Contact